Time,TemperatureF,DewpointF,PressureIn,WindDirection,WindDirectionDegrees,WindSpeedMPH,WindSpeedGustMPH,Humidity,HourlyPrecipIn,Conditions,Clouds,dailyrainin,SolarRadiationWatts/m^2,SoftwareType,DateUTC
2013-06-30 00:02:00,74.9,72.4,29.89,SSW,202,3.0,6.0,92,0.00,,,0.17,0,Wunderground v.1.15,2013-06-30 04:02:00,
2013-06-30 00:04:00,74.9,72.4,29.89,SSW,202,3.0,6.0,92,0.00,,,0.17,0,Wunderground v.1.15,2013-06-30 04:04:00,
2013-06-30 00:06:00,74.9,72.4,29.89,SSW,202,3.0,6.0,92,0.00,,,0.17,0,Wunderground v.1.15,2013-06-30 04:06:00,
2013-06-30 00:08:00,74.9,72.4,29.89,SSW,198,3.0,6.0,92,0.00,,,0.00,0,Wunderground v.1.15,2013-06-30 04:08:00,
2013-06-30 00:14:00,74.9,72.4,29.89,South,176,3.0,7.0,92,0.00,,,0.00,0,Wunderground v.1.15,2013-06-30 04:14:00,
2013-06-30 00:20:00,74.9,72.4,29.89,South,174,4.0,4.0,92,0.00,,,0.00,0,Wunderground v.1.15,2013-06-30 04:20:00,
2013-06-30 00:26:00,74.9,72.4,29.88,South,169,3.0,6.0,92,0.00,,,0.00,0,Wunderground v.1.15,2013-06-30 04:26:00,
2013-06-30 00:32:00,74.9,72.4,29.89,South,169,3.0,4.0,92,0.00,,,0.00,0,Wunderground v.1.15,2013-06-30 04:32:00,
2013-06-30 00:38:00,74.8,72.3,29.88,South,184,3.0,4.0,92,0.00,,,0.00,0,Wunderground v.1.15,2013-06-30 04:38:00,
2013-06-30 00:44:00,74.8,72.3,29.88,South,183,2.0,3.0,92,0.00,,,0.00,0,Wunderground v.1.15,2013-06-30 04:44:00,
2013-06-30 00:50:00,74.7,72.2,29.88,South,184,1.0,1.0,92,0.00,,,0.00,0,Wunderground v.1.15,2013-06-30 04:50:00,
2013-06-30 00:56:00,74.7,72.2,29.88,South,189,2.0,5.0,92,0.00,,,0.00,0,Wunderground v.1.15,2013-06-30 04:56:00,
2013-06-30 01:02:00,74.7,72.2,29.88,South,190,2.0,5.0,92,0.00,,,0.00,0,Wunderground v.1.15,2013-06-30 05:02:00,
2013-06-30 01:08:00,74.7,72.2,29.88,South,191,3.0,5.0,92,0.00,,,0.00,0,Wunderground v.1.15,2013-06-30 05:08:00,
2013-06-30 01:14:00,74.6,72.4,29.88,SSW,199,3.0,5.0,93,0.00,,,0.00,0,Wunderground v.1.15,2013-06-30 05:14:00,
2013-06-30 01:20:00,74.5,72.3,29.88,SSW,200,3.0,3.0,93,0.00,,,0.00,0,Wunderground v.1.15,2013-06-30 05:20:00,
2013-06-30 01:26:00,74.5,72.3,29.88,SSW,200,3.0,6.0,93,0.00,,,0.00,0,Wunderground v.1.15,2013-06-30 05:26:00,
2013-06-30 01:32:00,74.5,72.3,29.88,SSW,198,3.0,4.0,93,0.00,,,0.00,0,Wunderground v.1.15,2013-06-30 05:32:00,
2013-06-30 01:38:00,74.5,72.3,29.88,SSW,198,3.0,7.0,93,0.00,,,0.00,0,Wunderground v.1.15,2013-06-30 05:38:00,
2013-06-30 01:44:00,74.5,72.3,29.88,SSW,198,3.0,5.0,93,0.00,,,0.00,0,Wunderground v.1.15,2013-06-30 05:44:00,
2013-06-30 01:50:00,74.5,72.3,29.87,SSW,197,3.0,3.0,93,0.00,,,0.00,0,Wunderground v.1.15,2013-06-30 05:50:00,
2013-06-30 01:56:00,74.5,72.3,29.88,SSW,208,2.0,4.0,93,0.00,,,0.00,0,Wunderground v.1.15,2013-06-30 05:56:00,
2013-06-30 02:02:00,74.5,72.7,29.88,SSW,199,3.0,5.0,94,0.00,,,0.00,0,Wunderground v.1.15,2013-06-30 06:02:00,
2013-06-30 02:08:00,74.5,72.7,29.88,SSW,203,2.0,5.0,94,0.00,,,0.00,0,Wunderground v.1.15,2013-06-30 06:08:00,
2013-06-30 02:14:00,74.5,72.7,29.87,South,174,3.0,3.0,94,0.00,,,0.00,0,Wunderground v.1.15,2013-06-30 06:14:00,
2013-06-30 02:20:00,74.6,72.8,29.87,South,174,1.0,1.0,94,0.00,,,0.00,0,Wunderground v.1.15,2013-06-30 06:20:00,
2013-06-30 02:26:00,74.6,72.8,29.87,South,175,1.0,5.0,94,0.00,,,0.00,0,Wunderground v.1.15,2013-06-30 06:26:00,
2013-06-30 02:32:00,74.6,72.8,29.87,South,178,2.0,2.0,94,0.00,,,0.00,0,Wunderground v.1.15,2013-06-30 06:32:00,
2013-06-30 02:38:00,74.6,72.8,29.87,South,178,2.0,4.0,94,0.00,,,0.00,0,Wunderground v.1.15,2013-06-30 06:38:00,
2013-06-30 02:44:00,74.7,72.9,29.87,South,179,2.0,4.0,94,0.00,,,0.00,0,Wunderground v.1.15,2013-06-30 06:44:00,
2013-06-30 02:50:00,74.8,73.0,29.86,SW,219,2.0,5.0,94,0.00,,,0.00,0,Wunderground v.1.15,2013-06-30 06:50:00,
2013-06-30 02:56:00,74.8,73.0,29.86,SSW,198,3.0,5.0,94,0.00,,,0.00,0,Wunderground v.1.15,2013-06-30 06:56:00,
2013-06-30 03:02:00,74.9,73.1,29.86,South,178,3.0,8.0,94,0.00,,,0.00,0,Wunderground v.1.15,2013-06-30 07:02:00,
2013-06-30 03:08:00,74.9,73.1,29.86,South,178,4.0,8.0,94,0.00,,,0.00,0,Wunderground v.1.15,2013-06-30 07:08:00,
2013-06-30 03:14:00,74.9,73.1,29.86,SSW,192,4.0,7.0,94,0.00,,,0.00,0,Wunderground v.1.15,2013-06-30 07:14:00,
2013-06-30 03:20:00,75.0,73.2,29.86,SSW,202,4.0,4.0,94,0.00,,,0.00,0,Wunderground v.1.15,2013-06-30 07:20:00,
2013-06-30 03:26:00,75.0,73.2,29.86,SSW,200,3.0,10.0,94,0.00,,,0.00,0,Wunderground v.1.15,2013-06-30 07:26:00,
2013-06-30 03:32:00,75.0,73.2,29.86,SSW,198,5.0,5.0,94,0.00,,,0.00,0,Wunderground v.1.15,2013-06-30 07:32:00,
2013-06-30 03:38:00,75.1,73.3,29.86,SW,217,4.0,6.0,94,0.00,,,0.00,0,Wunderground v.1.15,2013-06-30 07:38:00,
2013-06-30 03:44:00,75.0,73.2,29.86,SSW,194,4.0,7.0,94,0.00,,,0.00,0,Wunderground v.1.15,2013-06-30 07:44:00,
2013-06-30 03:50:00,75.0,73.2,29.86,SSW,204,4.0,4.0,94,0.00,,,0.00,0,Wunderground v.1.15,2013-06-30 07:50:00,
2013-06-30 03:56:00,75.0,73.2,29.86,South,188,3.0,7.0,94,0.00,,,0.00,0,Wunderground v.1.15,2013-06-30 07:56:00,
2013-06-30 04:02:00,75.0,73.2,29.86,SW,219,4.0,5.0,94,0.00,,,0.00,0,Wunderground v.1.15,2013-06-30 08:02:00,
2013-06-30 04:08:00,75.0,73.5,29.86,South,178,4.0,9.0,95,0.00,,,0.00,0,Wunderground v.1.15,2013-06-30 08:08:00,
2013-06-30 04:14:00,75.0,73.5,29.86,SSW,199,4.0,6.0,95,0.00,,,0.00,0,Wunderground v.1.15,2013-06-30 08:14:00,
2013-06-30 04:20:00,75.0,73.5,29.86,SSW,201,4.0,4.0,95,0.00,,,0.00,0,Wunderground v.1.15,2013-06-30 08:20:00,
2013-06-30 04:26:00,74.9,73.4,29.85,SSW,209,2.0,5.0,95,0.00,,,0.00,0,Wunderground v.1.15,2013-06-30 08:26:00,
2013-06-30 04:32:00,74.9,73.4,29.86,SSW,211,3.0,4.0,95,0.00,,,0.00,0,Wunderground v.1.15,2013-06-30 08:32:00,
2013-06-30 04:38:00,74.8,73.3,29.85,SSW,211,3.0,4.0,95,0.00,,,0.00,0,Wunderground v.1.15,2013-06-30 08:38:00,
2013-06-30 04:44:00,74.8,73.3,29.85,SSW,197,3.0,8.0,95,0.00,,,0.00,0,Wunderground v.1.15,2013-06-30 08:44:00,
2013-06-30 04:50:00,74.9,73.4,29.86,SSW,209,3.0,3.0,95,0.00,,,0.00,0,Wunderground v.1.15,2013-06-30 08:50:00,
2013-06-30 04:56:00,74.9,73.4,29.86,SSW,211,3.0,4.0,95,0.00,,,0.00,0,Wunderground v.1.15,2013-06-30 08:56:00,
2013-06-30 05:02:00,74.9,73.7,29.86,South,185,3.0,6.0,96,0.00,,,0.00,0,Wunderground v.1.15,2013-06-30 09:02:00,
2013-06-30 05:08:00,74.9,73.7,29.86,South,191,3.0,6.0,96,0.00,,,0.00,0,Wunderground v.1.15,2013-06-30 09:08:00,
2013-06-30 05:14:00,74.9,73.7,29.86,South,190,3.0,5.0,96,0.00,,,0.00,0,Wunderground v.1.15,2013-06-30 09:14:00,
2013-06-30 05:20:00,74.9,73.7,29.86,South,190,2.0,2.0,96,0.00,,,0.00,0,Wunderground v.1.15,2013-06-30 09:20:00,
2013-06-30 05:26:00,74.9,73.7,29.86,South,191,2.0,4.0,96,0.00,,,0.00,0,Wunderground v.1.15,2013-06-30 09:26:00,
2013-06-30 05:32:00,74.9,73.7,29.85,South,191,1.0,1.0,96,0.00,,,0.00,0,Wunderground v.1.15,2013-06-30 09:32:00,
2013-06-30 05:38:00,74.9,73.7,29.86,South,190,1.0,2.0,96,0.00,,,0.00,0,Wunderground v.1.15,2013-06-30 09:38:00,
2013-06-30 05:44:00,74.9,73.7,29.86,South,189,3.0,6.0,96,0.00,,,0.00,0,Wunderground v.1.15,2013-06-30 09:44:00,
2013-06-30 05:50:00,74.9,73.7,29.86,South,188,3.0,3.0,96,0.00,,,0.00,0,Wunderground v.1.15,2013-06-30 09:50:00,
2013-06-30 05:56:00,74.9,73.7,29.86,South,188,3.0,3.0,96,0.00,,,0.00,0,Wunderground v.1.15,2013-06-30 09:56:00,
2013-06-30 06:02:00,74.8,73.6,29.86,South,188,3.0,3.0,96,0.00,,,0.00,0,Wunderground v.1.15,2013-06-30 10:02:00,
2013-06-30 06:08:00,74.8,73.6,29.86,South,188,1.0,3.0,96,0.00,,,0.00,0,Wunderground v.1.15,2013-06-30 10:08:00,
2013-06-30 06:14:00,74.8,73.6,29.87,South,188,0.0,3.0,96,0.00,,,0.00,0,Wunderground v.1.15,2013-06-30 10:14:00,
2013-06-30 06:20:00,74.9,73.7,29.86,South,188,1.0,1.0,96,0.00,,,0.00,0,Wunderground v.1.15,2013-06-30 10:20:00,
2013-06-30 06:26:00,74.9,73.7,29.87,South,188,1.0,1.0,96,0.00,,,0.00,0,Wunderground v.1.15,2013-06-30 10:26:00,
2013-06-30 06:32:00,74.9,74.0,29.86,South,188,1.0,1.0,97,0.00,,,0.00,0,Wunderground v.1.15,2013-06-30 10:32:00,
2013-06-30 06:38:00,74.9,74.0,29.87,South,188,1.0,5.0,97,0.00,,,0.00,5,Wunderground v.1.15,2013-06-30 10:38:00,
2013-06-30 06:44:00,74.9,74.0,29.86,South,189,2.0,2.0,97,0.00,,,0.00,11,Wunderground v.1.15,2013-06-30 10:44:00,
2013-06-30 06:50:00,75.0,74.1,29.87,South,191,1.0,1.0,97,0.00,,,0.00,16,Wunderground v.1.15,2013-06-30 10:50:00,
2013-06-30 06:56:00,75.1,74.2,29.87,South,191,1.0,3.0,97,0.00,,,0.00,21,Wunderground v.1.15,2013-06-30 10:56:00,
2013-06-30 07:02:00,75.2,74.3,29.87,South,191,2.0,4.0,97,0.00,,,0.00,35,Wunderground v.1.15,2013-06-30 11:02:00,
2013-06-30 07:08:00,75.4,74.5,29.87,South,190,2.0,4.0,97,0.00,,,0.00,53,Wunderground v.1.15,2013-06-30 11:08:00,
2013-06-30 07:14:00,75.7,74.8,29.86,South,190,3.0,3.0,97,0.00,,,0.00,69,Wunderground v.1.15,2013-06-30 11:14:00,
2013-06-30 07:20:00,76.0,75.1,29.87,SSW,202,2.0,5.0,97,0.00,,,0.00,83,Wunderground v.1.15,2013-06-30 11:20:00,
2013-06-30 07:26:00,76.2,75.3,29.87,SSW,202,2.0,5.0,97,0.00,,,0.00,100,Wunderground v.1.15,2013-06-30 11:26:00,
2013-06-30 07:32:00,76.5,75.6,29.87,SSW,200,2.0,5.0,97,0.00,,,0.00,116,Wunderground v.1.15,2013-06-30 11:32:00,
2013-06-30 07:38:00,76.8,75.9,29.88,SSW,198,3.0,5.0,97,0.00,,,0.00,135,Wunderground v.1.15,2013-06-30 11:38:00,
2013-06-30 07:44:00,77.1,76.2,29.88,South,184,3.0,5.0,97,0.00,,,0.00,153,Wunderground v.1.15,2013-06-30 11:44:00,
2013-06-30 07:50:00,77.5,76.6,29.88,SSW,211,3.0,6.0,97,0.00,,,0.00,190,Wunderground v.1.15,2013-06-30 11:50:00,
2013-06-30 07:56:00,77.8,76.6,29.88,South,184,4.0,6.0,96,0.00,,,0.00,229,Wunderground v.1.15,2013-06-30 11:56:00,
2013-06-30 08:02:00,78.3,76.7,29.88,SSW,207,5.0,5.0,95,0.00,,,0.00,213,Wunderground v.1.15,2013-06-30 12:02:00,
2013-06-30 08:08:00,78.6,76.7,29.89,SSW,199,4.0,5.0,94,0.00,,,0.00,142,Wunderground v.1.15,2013-06-30 12:08:00,
2013-06-30 08:14:00,78.7,76.8,29.89,SSE,167,4.0,4.0,94,0.00,,,0.00,137,Wunderground v.1.15,2013-06-30 12:14:00,
2013-06-30 08:20:00,78.9,76.7,29.90,SSW,200,4.0,4.0,93,0.00,,,0.00,144,Wunderground v.1.15,2013-06-30 12:20:00,
2013-06-30 08:26:00,79.2,77.0,29.90,SSW,198,3.0,6.0,93,0.00,,,0.00,141,Wunderground v.1.15,2013-06-30 12:26:00,
2013-06-30 08:32:00,79.4,76.9,29.90,SSW,201,3.0,8.0,92,0.00,,,0.00,151,Wunderground v.1.15,2013-06-30 12:32:00,
2013-06-30 08:38:00,79.6,76.7,29.90,SW,223,4.0,11.0,91,0.00,,,0.00,111,Wunderground v.1.15,2013-06-30 12:38:00,
2013-06-30 08:44:00,79.7,76.8,29.90,SSW,201,5.0,5.0,91,0.00,,,0.00,93,Wunderground v.1.15,2013-06-30 12:44:00,
2013-06-30 08:50:00,79.8,76.9,29.90,SSW,201,2.0,5.0,91,0.00,,,0.00,142,Wunderground v.1.15,2013-06-30 12:50:00,
2013-06-30 08:56:00,80.2,77.3,29.90,SSW,213,1.0,5.0,91,0.00,,,0.00,366,Wunderground v.1.15,2013-06-30 12:56:00,
2013-06-30 09:02:00,80.7,77.5,29.90,SW,219,2.0,5.0,90,0.00,,,0.00,338,Wunderground v.1.15,2013-06-30 13:02:00,
2013-06-30 09:08:00,81.3,77.7,29.90,South,173,4.0,9.0,89,0.00,,,0.00,489,Wunderground v.1.15,2013-06-30 13:08:00,
2013-06-30 09:14:00,82.0,77.7,29.90,SSW,206,5.0,8.0,87,0.00,,,0.00,526,Wunderground v.1.15,2013-06-30 13:14:00,
2013-06-30 09:20:00,82.6,78.0,29.90,SSW,207,5.0,5.0,86,0.00,,,0.00,287,Wunderground v.1.15,2013-06-30 13:20:00,
2013-06-30 09:26:00,83.2,78.2,29.90,SSW,192,4.0,5.0,85,0.00,,,0.00,323,Wunderground v.1.15,2013-06-30 13:26:00,
2013-06-30 09:32:00,83.4,77.3,29.90,SW,215,5.0,7.0,82,0.00,,,0.00,190,Wunderground v.1.15,2013-06-30 13:32:00,
2013-06-30 09:38:00,83.5,77.4,29.90,South,179,6.0,11.0,82,0.00,,,0.00,510,Wunderground v.1.15,2013-06-30 13:38:00,
2013-06-30 09:44:00,84.0,77.5,29.89,South,190,7.0,7.0,81,0.00,,,0.00,469,Wunderground v.1.15,2013-06-30 13:44:00,
2013-06-30 09:50:00,84.2,77.0,29.89,SSW,200,7.0,8.0,79,0.00,,,0.00,482,Wunderground v.1.15,2013-06-30 13:50:00,
2013-06-30 09:56:00,84.4,77.2,29.89,SSW,207,9.0,11.0,79,0.00,,,0.00,603,Wunderground v.1.15,2013-06-30 13:56:00,
2013-06-30 10:02:00,84.7,77.8,29.90,South,184,8.0,13.0,80,0.00,,,0.00,563,Wunderground v.1.15,2013-06-30 14:02:00,
2013-06-30 10:08:00,85.1,77.5,29.90,SSW,197,8.0,13.0,78,0.00,,,0.00,636,Wunderground v.1.15,2013-06-30 14:08:00,
2013-06-30 10:14:00,85.4,77.8,29.89,WSW,244,8.0,10.0,78,0.00,,,0.00,684,Wunderground v.1.15,2013-06-30 14:14:00,
2013-06-30 10:20:00,85.5,77.5,29.89,South,172,7.0,12.0,77,0.00,,,0.00,647,Wunderground v.1.15,2013-06-30 14:20:00,
2013-06-30 10:26:00,85.7,78.0,29.89,SW,228,7.0,12.0,78,0.00,,,0.00,680,Wunderground v.1.15,2013-06-30 14:26:00,
2013-06-30 10:32:00,86.2,77.7,29.89,SSW,205,6.0,7.0,76,0.00,,,0.00,761,Wunderground v.1.15,2013-06-30 14:32:00,
2013-06-30 10:38:00,86.4,77.5,29.89,South,178,8.0,9.0,75,0.00,,,0.00,800,Wunderground v.1.15,2013-06-30 14:38:00,
2013-06-30 10:44:00,86.9,77.6,29.89,West,259,6.0,9.0,74,0.00,,,0.00,830,Wunderground v.1.15,2013-06-30 14:44:00,
2013-06-30 10:50:00,87.7,78.0,29.89,SSW,201,5.0,6.0,73,0.00,,,0.00,837,Wunderground v.1.15,2013-06-30 14:50:00,
2013-06-30 10:56:00,88.2,77.2,29.89,SW,223,6.0,6.0,70,0.00,,,0.00,816,Wunderground v.1.15,2013-06-30 14:56:00,
2013-06-30 11:02:00,88.4,76.5,29.89,SSW,196,7.0,15.0,68,0.00,,,0.00,802,Wunderground v.1.15,2013-06-30 15:02:00,
2013-06-30 11:08:00,88.4,76.5,29.89,South,178,8.0,15.0,68,0.00,,,0.00,810,Wunderground v.1.15,2013-06-30 15:08:00,
2013-06-30 11:14:00,88.5,76.1,29.89,SSW,192,8.0,11.0,67,0.00,,,0.00,881,Wunderground v.1.15,2013-06-30 15:14:00,
2013-06-30 11:20:00,88.7,76.8,29.89,SSW,195,8.0,8.0,68,0.00,,,0.00,925,Wunderground v.1.15,2013-06-30 15:20:00,
2013-06-30 11:26:00,89.0,76.6,29.89,WSW,243,8.0,8.0,67,0.00,,,0.00,916,Wunderground v.1.15,2013-06-30 15:26:00,
2013-06-30 11:32:00,88.8,76.4,29.89,South,191,6.0,7.0,67,0.00,,,0.00,229,Wunderground v.1.15,2013-06-30 15:32:00,
2013-06-30 11:38:00,88.7,76.3,29.89,South,180,6.0,9.0,67,0.00,,,0.00,248,Wunderground v.1.15,2013-06-30 15:38:00,
2013-06-30 11:44:00,89.1,75.8,29.88,SSW,206,7.0,12.0,65,0.00,,,0.00,962,Wunderground v.1.15,2013-06-30 15:44:00,
2013-06-30 11:50:00,88.8,76.0,29.88,SW,236,8.0,8.0,66,0.00,,,0.00,954,Wunderground v.1.15,2013-06-30 15:50:00,
2013-06-30 11:56:00,89.3,76.0,29.88,SW,236,7.0,12.0,65,0.00,,,0.00,953,Wunderground v.1.15,2013-06-30 15:56:00,
2013-06-30 12:02:00,89.5,76.6,29.88,SW,223,7.0,10.0,66,0.00,,,0.00,1002,Wunderground v.1.15,2013-06-30 16:02:00,
2013-06-30 12:08:00,89.6,75.8,29.87,SW,229,6.0,12.0,64,0.00,,,0.00,1002,Wunderground v.1.15,2013-06-30 16:08:00,
2013-06-30 12:14:00,89.5,76.6,29.88,SSW,211,6.0,15.0,66,0.00,,,0.00,974,Wunderground v.1.15,2013-06-30 16:14:00,
2013-06-30 12:20:00,90.0,76.2,29.87,SSW,206,7.0,7.0,64,0.00,,,0.00,1063,Wunderground v.1.15,2013-06-30 16:20:00,
2013-06-30 12:26:00,90.3,76.5,29.88,SW,215,7.0,11.0,64,0.00,,,0.00,1007,Wunderground v.1.15,2013-06-30 16:26:00,
2013-06-30 12:32:00,90.4,77.0,29.88,South,187,8.0,14.0,65,0.00,,,0.00,998,Wunderground v.1.15,2013-06-30 16:32:00,
2013-06-30 12:38:00,90.4,76.1,29.88,SSW,204,7.0,14.0,63,0.00,,,0.00,830,Wunderground v.1.15,2013-06-30 16:38:00,
2013-06-30 12:44:00,90.3,76.0,29.87,South,182,7.0,11.0,63,0.00,,,0.00,605,Wunderground v.1.15,2013-06-30 16:44:00,
2013-06-30 12:50:00,90.0,75.7,29.87,SSW,209,7.0,8.0,63,0.00,,,0.00,436,Wunderground v.1.15,2013-06-30 16:50:00,
2013-06-30 12:56:00,89.5,76.6,29.87,South,169,7.0,8.0,66,0.00,,,0.00,239,Wunderground v.1.15,2013-06-30 16:56:00,
2013-06-30 13:02:00,86.1,73.4,29.88,SSE,149,10.0,10.0,66,0.91,,,0.10,186,Wunderground v.1.15,2013-06-30 17:02:00,
2013-06-30 13:08:00,83.9,75.1,29.88,SSE,163,8.0,10.0,75,0.18,,,0.14,272,Wunderground v.1.15,2013-06-30 17:08:00,
2013-06-30 13:14:00,83.0,75.8,29.88,SSE,163,1.0,4.0,79,0.06,,,0.14,480,Wunderground v.1.15,2013-06-30 17:14:00,
2013-06-30 13:20:00,83.4,77.3,29.87,SSE,162,0.0,0.0,82,0.04,,,0.14,1181,Wunderground v.1.15,2013-06-30 17:20:00,
2013-06-30 13:26:00,83.3,77.2,29.88,SE,142,3.0,8.0,82,0.00,,,0.14,107,Wunderground v.1.15,2013-06-30 17:26:00,
2013-06-30 13:32:00,81.4,75.4,29.92,SSW,211,9.0,10.0,82,5.76,,,0.35,11,Wunderground v.1.15,2013-06-30 17:32:00,
2013-06-30 13:38:00,78.3,73.4,29.94,West,260,11.0,25.0,85,7.20,,,0.59,9,Wunderground v.1.15,2013-06-30 17:38:00,
2013-06-30 13:44:00,75.8,72.3,29.92,WSW,240,11.0,16.0,89,5.94,,,1.08,18,Wunderground v.1.15,2013-06-30 17:44:00,
2013-06-30 13:50:00,74.5,71.4,29.91,WSW,250,9.0,9.0,90,0.30,,,1.17,40,Wunderground v.1.15,2013-06-30 17:50:00,
2013-06-30 13:56:00,73.9,71.4,29.90,West,269,5.0,9.0,92,0.11,,,1.18,62,Wunderground v.1.15,2013-06-30 17:56:00,
2013-06-30 14:02:00,73.7,71.5,29.90,WSW,258,4.0,5.0,93,0.05,,,1.18,72,Wunderground v.1.15,2013-06-30 18:02:00,
2013-06-30 14:08:00,73.7,71.9,29.90,WSW,258,2.0,5.0,94,0.00,,,1.18,51,Wunderground v.1.15,2013-06-30 18:08:00,
2013-06-30 14:14:00,73.9,72.1,29.89,SW,215,1.0,4.0,94,0.00,,,1.18,97,Wunderground v.1.15,2013-06-30 18:14:00,
2013-06-30 14:20:00,74.2,72.4,29.89,South,178,2.0,5.0,94,0.00,,,1.18,120,Wunderground v.1.15,2013-06-30 18:20:00,
2013-06-30 14:26:00,74.6,73.1,29.90,South,182,3.0,5.0,95,0.00,,,1.18,107,Wunderground v.1.15,2013-06-30 18:26:00,
2013-06-30 14:32:00,74.8,73.3,29.91,SSE,155,5.0,12.0,95,0.00,,,1.18,98,Wunderground v.1.15,2013-06-30 18:32:00,
2013-06-30 14:38:00,74.5,72.7,29.92,SE,140,5.0,12.0,94,0.00,,,1.18,93,Wunderground v.1.15,2013-06-30 18:38:00,
2013-06-30 14:44:00,74.4,72.6,29.91,SSE,155,4.0,10.0,94,0.00,,,1.18,86,Wunderground v.1.15,2013-06-30 18:44:00,
2013-06-30 14:50:00,74.4,72.6,29.91,SSE,161,4.0,6.0,94,0.00,,,1.18,156,Wunderground v.1.15,2013-06-30 18:50:00,
2013-06-30 14:56:00,74.7,72.9,29.91,SSE,165,3.0,6.0,94,0.00,,,1.18,169,Wunderground v.1.15,2013-06-30 18:56:00,
2013-06-30 15:02:00,74.9,73.1,29.90,SE,141,4.0,7.0,94,0.00,,,1.18,130,Wunderground v.1.15,2013-06-30 19:02:00,
2013-06-30 15:08:00,75.2,73.4,29.91,SSE,159,6.0,9.0,94,0.00,,,1.18,104,Wunderground v.1.15,2013-06-30 19:08:00,
2013-06-30 15:14:00,75.3,73.5,29.90,SSE,165,6.0,10.0,94,0.00,,,1.18,93,Wunderground v.1.15,2013-06-30 19:14:00,
2013-06-30 15:20:00,75.1,72.9,29.90,SSE,161,8.0,8.0,93,0.00,,,1.18,97,Wunderground v.1.15,2013-06-30 19:20:00,
2013-06-30 15:26:00,75.2,73.0,29.90,SSE,155,5.0,8.0,93,0.00,,,1.18,109,Wunderground v.1.15,2013-06-30 19:26:00,
2013-06-30 15:32:00,75.4,73.2,29.90,SSE,157,4.0,4.0,93,0.00,,,1.18,125,Wunderground v.1.15,2013-06-30 19:32:00,
2013-06-30 15:38:00,75.6,73.8,29.89,SSE,148,4.0,7.0,94,0.00,,,1.18,134,Wunderground v.1.15,2013-06-30 19:38:00,
2013-06-30 15:44:00,75.9,74.0,29.89,SE,139,4.0,5.0,94,0.00,,,1.18,139,Wunderground v.1.15,2013-06-30 19:44:00,
2013-06-30 15:50:00,76.0,73.8,29.89,SSE,154,5.0,6.0,93,0.00,,,1.18,142,Wunderground v.1.15,2013-06-30 19:50:00,
2013-06-30 15:56:00,76.1,73.9,29.89,SSE,157,5.0,6.0,93,0.00,,,1.18,155,Wunderground v.1.15,2013-06-30 19:56:00,
2013-06-30 16:02:00,76.3,74.4,29.89,SSE,156,4.0,4.0,94,0.00,,,1.18,178,Wunderground v.1.15,2013-06-30 20:02:00,
2013-06-30 16:08:00,76.5,74.6,29.90,South,173,3.0,7.0,94,0.00,,,1.18,197,Wunderground v.1.15,2013-06-30 20:08:00,
2013-06-30 16:14:00,76.7,74.8,29.90,South,171,3.0,5.0,94,0.00,,,1.18,211,Wunderground v.1.15,2013-06-30 20:14:00,
2013-06-30 16:20:00,76.8,74.6,29.90,SSE,159,3.0,3.0,93,0.00,,,1.18,304,Wunderground v.1.15,2013-06-30 20:20:00,
2013-06-30 16:26:00,77.1,74.9,29.90,SSW,194,2.0,5.0,93,0.00,,,1.18,345,Wunderground v.1.15,2013-06-30 20:26:00,
2013-06-30 16:32:00,77.4,75.2,29.91,SSW,194,1.0,2.0,93,0.00,,,1.18,329,Wunderground v.1.15,2013-06-30 20:32:00,
2013-06-30 16:38:00,77.7,75.5,29.92,SSW,194,0.0,2.0,93,0.00,,,1.18,232,Wunderground v.1.15,2013-06-30 20:38:00,
2013-06-30 16:44:00,77.7,74.9,29.92,SSW,212,1.0,4.0,91,0.00,,,1.18,185,Wunderground v.1.15,2013-06-30 20:44:00,
2013-06-30 16:50:00,77.8,75.0,29.92,SSW,213,1.0,3.0,91,0.00,,,1.18,128,Wunderground v.1.15,2013-06-30 20:50:00,
2013-06-30 16:56:00,77.9,75.1,29.92,SSW,213,0.0,3.0,91,0.00,,,1.18,109,Wunderground v.1.15,2013-06-30 20:56:00,
2013-06-30 17:02:00,78.0,74.8,29.92,SSW,213,1.0,1.0,90,0.00,,,1.18,114,Wunderground v.1.15,2013-06-30 21:02:00,
2013-06-30 17:08:00,78.1,75.3,29.91,SSW,213,0.0,1.0,91,0.00,,,1.19,121,Wunderground v.1.15,2013-06-30 21:08:00,
2013-06-30 17:14:00,77.9,74.7,29.91,WSW,250,1.0,1.0,90,0.00,,,1.19,107,Wunderground v.1.15,2013-06-30 21:14:00,
2013-06-30 17:20:00,77.9,75.1,29.90,WSW,250,1.0,1.0,91,0.00,,,1.19,98,Wunderground v.1.15,2013-06-30 21:20:00,
2013-06-30 17:26:00,77.9,75.1,29.91,NNW,344,0.0,1.0,91,0.00,,,1.19,100,Wunderground v.1.15,2013-06-30 21:26:00,
2013-06-30 17:32:00,78.0,75.2,29.90,NNW,344,0.0,0.0,91,0.00,,,1.20,120,Wunderground v.1.15,2013-06-30 21:32:00,
2013-06-30 17:38:00,78.1,75.6,29.90,NNW,344,0.0,0.0,92,0.00,,,1.20,144,Wunderground v.1.15,2013-06-30 21:38:00,
2013-06-30 17:44:00,78.0,75.2,29.90,NNW,344,0.0,0.0,91,0.00,,,1.20,171,Wunderground v.1.15,2013-06-30 21:44:00,
2013-06-30 17:50:00,78.1,75.6,29.91,NNW,344,0.0,0.0,92,0.00,,,1.20,176,Wunderground v.1.15,2013-06-30 21:50:00,
2013-06-30 17:56:00,78.2,75.4,29.90,NNW,346,0.0,0.0,91,0.00,,,1.20,185,Wunderground v.1.15,2013-06-30 21:56:00,
2013-06-30 18:02:00,78.0,74.8,29.90,ESE,107,1.0,1.0,90,0.00,,,1.20,144,Wunderground v.1.15,2013-06-30 22:02:00,
2013-06-30 18:08:00,77.6,74.4,29.90,SE,141,3.0,6.0,90,0.00,,,1.20,142,Wunderground v.1.15,2013-06-30 22:08:00,
2013-06-30 18:14:00,77.4,74.2,29.91,SE,146,3.0,5.0,90,0.00,,,1.20,72,Wunderground v.1.15,2013-06-30 22:14:00,
2013-06-30 18:20:00,77.3,74.1,29.92,SE,125,4.0,4.0,90,0.00,,,1.20,39,Wunderground v.1.15,2013-06-30 22:20:00,
2013-06-30 18:26:00,77.2,74.0,29.92,SE,130,5.0,7.0,90,0.00,,,1.20,32,Wunderground v.1.15,2013-06-30 22:26:00,
2013-06-30 18:32:00,77.3,74.5,29.92,SE,142,7.0,12.0,91,0.00,,,1.20,53,Wunderground v.1.15,2013-06-30 22:32:00,
2013-06-30 18:38:00,77.5,75.0,29.92,SE,132,7.0,12.0,92,0.00,,,1.20,21,Wunderground v.1.15,2013-06-30 22:38:00,
2013-06-30 18:44:00,77.2,74.4,29.93,SE,146,9.0,11.0,91,0.00,,,1.20,39,Wunderground v.1.15,2013-06-30 22:44:00,
2013-06-30 18:50:00,76.9,74.1,29.94,South,169,9.0,9.0,91,0.00,,,1.20,16,Wunderground v.1.15,2013-06-30 22:50:00,
2013-06-30 18:56:00,76.5,73.3,29.94,SSE,160,10.0,14.0,90,0.00,,,1.20,23,Wunderground v.1.15,2013-06-30 22:56:00,
2013-06-30 19:02:00,76.1,73.0,29.94,South,181,11.0,11.0,90,0.00,,,1.20,21,Wunderground v.1.15,2013-06-30 23:02:00,
2013-06-30 19:08:00,75.7,72.9,29.94,SE,146,9.0,11.0,91,0.00,,,1.20,16,Wunderground v.1.15,2013-06-30 23:08:00,
2013-06-30 19:14:00,75.4,72.9,29.94,South,173,7.0,10.0,92,0.00,,,1.20,12,Wunderground v.1.15,2013-06-30 23:14:00,
2013-06-30 19:20:00,75.0,72.5,29.94,South,187,7.0,7.0,92,0.00,,,1.20,9,Wunderground v.1.15,2013-06-30 23:20:00,
2013-06-30 19:26:00,74.8,72.3,29.94,SSW,195,7.0,11.0,92,0.00,,,1.20,9,Wunderground v.1.15,2013-06-30 23:26:00,
2013-06-30 19:32:00,74.6,72.1,29.93,South,174,6.0,8.0,92,0.00,,,1.20,5,Wunderground v.1.15,2013-06-30 23:32:00,
2013-06-30 19:38:00,74.4,72.2,29.92,South,184,5.0,13.0,93,0.00,,,1.20,5,Wunderground v.1.15,2013-06-30 23:38:00,
2013-06-30 19:44:00,74.3,72.1,29.92,SSE,155,6.0,6.0,93,0.00,,,1.20,0,Wunderground v.1.15,2013-06-30 23:44:00,
2013-06-30 19:50:00,74.2,72.0,29.92,SSE,160,5.0,5.0,93,0.00,,,1.20,0,Wunderground v.1.15,2013-06-30 23:50:00,
2013-06-30 19:56:00,74.2,72.0,29.92,South,174,4.0,5.0,93,0.00,,,1.20,0,Wunderground v.1.15,2013-06-30 23:56:00,
2013-06-30 20:02:00,74.1,71.9,29.92,SE,145,3.0,4.0,93,0.00,,,1.20,0,Wunderground v.1.15,2013-07-01 00:02:00,
2013-06-30 20:08:00,74.1,71.9,29.92,SSE,165,3.0,6.0,93,0.00,,,1.20,0,Wunderground v.1.15,2013-07-01 00:08:00,
2013-06-30 20:14:00,74.1,72.3,29.92,SE,144,4.0,4.0,94,0.00,,,1.20,0,Wunderground v.1.15,2013-07-01 00:14:00,
2013-06-30 20:20:00,74.0,72.2,29.92,SE,144,4.0,4.0,94,0.20,,,1.22,0,Wunderground v.1.15,2013-07-01 00:20:00,
2013-06-30 20:26:00,74.0,72.2,29.92,SE,137,4.0,4.0,94,0.13,,,1.23,0,Wunderground v.1.15,2013-07-01 00:26:00,
2013-06-30 20:32:00,74.0,72.5,29.91,SSE,167,3.0,6.0,95,0.15,,,1.25,0,Wunderground v.1.15,2013-07-01 00:32:00,
2013-06-30 20:38:00,73.9,72.4,29.91,SSE,166,3.0,7.0,95,0.14,,,1.26,0,Wunderground v.1.15,2013-07-01 00:38:00,
2013-06-30 20:44:00,73.8,72.3,29.92,South,190,4.0,6.0,95,0.09,,,1.27,0,Wunderground v.1.15,2013-07-01 00:44:00,
2013-06-30 20:50:00,73.8,72.6,29.91,South,171,4.0,4.0,96,0.07,,,1.28,0,Wunderground v.1.15,2013-07-01 00:50:00,
2013-06-30 20:56:00,73.8,72.6,29.91,South,177,4.0,5.0,96,0.07,,,1.28,0,Wunderground v.1.15,2013-07-01 00:56:00,
2013-06-30 21:02:00,73.7,72.5,29.91,South,169,5.0,5.0,96,0.05,,,1.28,0,Wunderground v.1.15,2013-07-01 01:02:00,
2013-06-30 21:08:00,73.7,72.5,29.91,South,180,5.0,6.0,96,0.00,,,1.28,0,Wunderground v.1.15,2013-07-01 01:08:00,
2013-06-30 21:14:00,73.7,72.5,29.91,South,178,4.0,5.0,96,0.00,,,1.28,0,Wunderground v.1.15,2013-07-01 01:14:00,
2013-06-30 21:20:00,73.7,72.5,29.91,South,182,4.0,4.0,96,0.00,,,1.28,0,Wunderground v.1.15,2013-07-01 01:20:00,
2013-06-30 21:26:00,73.7,72.5,29.90,SSE,162,5.0,6.0,96,0.00,,,1.28,0,Wunderground v.1.15,2013-07-01 01:26:00,
2013-06-30 21:32:00,73.7,72.5,29.90,South,170,5.0,5.0,96,0.00,,,1.28,0,Wunderground v.1.15,2013-07-01 01:32:00,
2013-06-30 21:38:00,73.7,72.5,29.89,South,176,4.0,8.0,96,0.00,,,1.28,0,Wunderground v.1.15,2013-07-01 01:38:00,
2013-06-30 21:44:00,73.7,72.5,29.90,SSE,154,4.0,9.0,96,0.00,,,1.28,0,Wunderground v.1.15,2013-07-01 01:44:00,
2013-06-30 21:50:00,73.7,72.5,29.90,SSE,157,4.0,5.0,96,0.00,,,1.28,0,Wunderground v.1.15,2013-07-01 01:50:00,
2013-06-30 21:56:00,73.7,72.5,29.90,SSE,156,4.0,5.0,96,0.00,,,1.28,0,Wunderground v.1.15,2013-07-01 01:56:00,
2013-06-30 22:02:00,73.8,72.6,29.90,SSE,147,4.0,11.0,96,0.00,,,1.28,0,Wunderground v.1.15,2013-07-01 02:02:00,
2013-06-30 22:08:00,73.9,72.7,29.91,SSE,164,5.0,11.0,96,0.00,,,1.28,0,Wunderground v.1.15,2013-07-01 02:08:00,
2013-06-30 22:14:00,73.9,72.7,29.91,South,178,5.0,8.0,96,0.00,,,1.28,0,Wunderground v.1.15,2013-07-01 02:14:00,
2013-06-30 22:20:00,73.9,72.7,29.92,South,188,5.0,5.0,96,0.00,,,1.28,0,Wunderground v.1.15,2013-07-01 02:20:00,
2013-06-30 22:26:00,74.0,72.8,29.92,South,171,5.0,6.0,96,0.00,,,1.28,0,Wunderground v.1.15,2013-07-01 02:26:00,
2013-06-30 22:32:00,74.0,72.8,29.92,South,182,3.0,4.0,96,0.00,,,1.28,0,Wunderground v.1.15,2013-07-01 02:32:00,
2013-06-30 22:38:00,74.0,72.8,29.92,South,180,3.0,5.0,96,0.00,,,1.28,0,Wunderground v.1.15,2013-07-01 02:38:00,
2013-06-30 22:44:00,74.1,72.9,29.92,SSE,149,4.0,5.0,96,0.00,,,1.28,0,Wunderground v.1.15,2013-07-01 02:44:00,
2013-06-30 22:50:00,74.1,72.9,29.92,SE,146,4.0,4.0,96,0.00,,,1.28,0,Wunderground v.1.15,2013-07-01 02:50:00,
2013-06-30 22:56:00,74.2,73.0,29.93,South,186,4.0,4.0,96,0.00,,,1.28,0,Wunderground v.1.15,2013-07-01 02:56:00,
2013-06-30 23:02:00,74.2,73.0,29.93,SSW,198,4.0,4.0,96,0.00,,,1.28,0,Wunderground v.1.15,2013-07-01 03:02:00,
2013-06-30 23:08:00,74.2,73.0,29.93,SSW,193,2.0,5.0,96,0.00,,,1.28,0,Wunderground v.1.15,2013-07-01 03:08:00,
2013-06-30 23:14:00,74.2,73.0,29.93,SSW,193,2.0,3.0,96,0.00,,,1.28,0,Wunderground v.1.15,2013-07-01 03:14:00,
2013-06-30 23:20:00,74.3,73.1,29.93,SSW,193,1.0,1.0,96,0.00,,,1.28,0,Wunderground v.1.15,2013-07-01 03:20:00,
2013-06-30 23:26:00,74.3,73.4,29.94,SSW,193,2.0,3.0,97,0.00,,,1.28,0,Wunderground v.1.15,2013-07-01 03:26:00,
2013-06-30 23:32:00,74.4,73.5,29.94,South,191,1.0,4.0,97,0.00,,,1.28,0,Wunderground v.1.15,2013-07-01 03:32:00,
2013-06-30 23:38:00,74.4,73.5,29.94,South,172,2.0,5.0,97,0.00,,,1.28,0,Wunderground v.1.15,2013-07-01 03:38:00,
2013-06-30 23:44:00,74.4,73.5,29.94,South,172,3.0,5.0,97,0.00,,,1.28,0,Wunderground v.1.15,2013-07-01 03:44:00,
2013-06-30 23:50:00,74.4,73.5,29.94,South,184,3.0,3.0,97,0.00,,,1.28,0,Wunderground v.1.15,2013-07-01 03:50:00,
2013-06-30 23:56:00,74.4,73.5,29.94,South,175,4.0,6.0,97,0.00,,,1.28,0,Wunderground v.1.15,2013-07-01 03:56:00,